STARLINK-5058, 55456

Orbit data source: Space-Track

STARLINK-5058, 55456 is a payload satellite owned by SpaceX/Seattle (US) in LEO that was launched on Thu, 02 Feb 2023 UTC via an FALCON 9 launch vehicle from the Air Force Eastern Test Range (AFETR). Payload-class satellites include a variety of spacecraft equipped with specific instruments for various scientific and technological missions. These include communications satellites like Starlink; space stations such as the ISS; scientific satellites like the Hubble; Earth observation satellites from companies like Planet Labs, Umbra, and HawkEye 360; GPS; miniature CubeSats for education and research; and military/defense satellites.

Loading next visibility...
Identifier
55456, 2023-015H
Orbit
LEO
Country
Flag of USUS
Related business
Manufacturer
SpaceX/Seattle
Mission
Operational Commercial Communications
Bus & Motor
STARLINK, Unknown motor
Mass
305 kg wet, ~290 kg dry
Launch date (UTC)
2023-02-02 (4 years ago)
Launch vehicle
FALCON 9
Launch site
Air Force Eastern Test Range (AFETR)
Object type
Payload
Rocket body
Debris
Shape & HBR
Box + 1 Pan, 10.1 m
Radar Cross Section
13.562 m², Large (>1 m²)

Expand to show TLE details & history
Last TLE update: 8 hours ago

TLE from 8 hours ago
0 STARLINK-5058
1 55456U 23015H   26258.51103495  .00000083  00000-0  12537-4 0  9990
2 55456  43.0034 336.6406 0001352 267.3354  92.7343 15.27575472199754
Epoch: 2026-09-15T12:15Z
TLE epoch observation values (Epoch: 2026-09-15T12:15:53.419Z)
Latitude
-0.00002°
Longitude
158.19206°
Altitude
482.883 km
Speed
7.626 km/s
True Right ascension
22h 26m 33s
True Declination
0° 00' 00"
Sunlit
Object was in full shadow at epoch
Visualization orbit readout
Latitude
Unknown
Longitude
Unknown
Altitude
Unknown
Speed
Unknown
Apparent Right ascension
Unknown
Apparent Declination
Unknown
Sunlit
N/A
Visualization observer readout
Local Sidereal Time
12:58:22
Azimuth
Unknown
Elevation
Unknown
Doppler factor
Unknown
Orbital elements
Apogee altitude
485.935 km
Perigee altitude
484.079 km
Semi-major axis
6,863.144 km
Eccentricity
0.00014
Inclination
43.0034°
RAAN
336.6406°
Arg. of periapsis
267.3354°
True anomaly
92.74978°
Mean anomaly
92.7343°
Eccentric anomaly
92.74204°
Mean motion
3.81732 °/min
Orbital period
94.31 mins
BSTAR
0.000012537
Loading maneuver chart data...
Computing Atmospheric mass density...
Loading historical data...
Loading historical data...
Loading historical data...
Loading historical data...
Loading historical data...
Loading historical data...
Loading historical data...

Documentation

Showing up to 5 results
|